Regional Weather Roundup
Issued by NWS

Home | Current Version | Previous Version | Text Only | Print | Product List | Glossary On
Versions: 1 2 3 4 5 6 7 8 9 10 11 12 13 14 15 16 17 18 19 20 21 22 23 24 25 26 27 28 29 30 31 32 33 34 35 36 37 38 39 40 41 42 43 44 45 46 47 48 49 50
000
ASUS43 KMPX 210010
RWRMN
WEATHER ROUNDUP FOR MINNESOTA
NATIONAL WEATHER SERVICE TWIN CITIES/CHANHASSEN MN
700 PM CDT WED AUG 20 2014


NOTE: "FAIR" INDICATES FEW OR NO CLOUDS BELOW 12,000 FEET WITH NO
SIGNIFICANT WEATHER AND/OR OBSTRUCTIONS TO VISIBILITY. N/A MEANS
CURRENT SKY AND/OR WEATHER CONDITIONS ARE NOT AVAILABLE.

MNZ060>063-068>070-210100-
   Twin Cities Metro

CITY           SKY/WX    TMP DP  RH WIND       PRES   REMARKS
TWIN CITIES    PTSUNNY   80  66  62 E9        29.84S
6HR MIN TEMP:  78; 6HR MAX TEMP:  83;

ST PAUL        PTSUNNY   78  65  63 E7        29.84F
CRYSTAL        PTSUNNY   80  64  58 E6        29.83S
BLAINE         PTSUNNY   79  66  65 E8        29.85R
LAKEVILLE      PTSUNNY   75  70  83 E8        29.85S
EDEN PRAIRIE   PTSUNNY   80  68  66 E7        29.83S
6HR MIN TEMP:  79; 6HR MAX TEMP:  84;

SOUTH ST PAUL  PTSUNNY   79  65  62 E5        29.85S
LAKE ELMO      FAIR      77  68  73 E3        29.86F
$$
MNZ001>005-007-008-013>017-022>024-027-028-210100-
   Northwest Minnesota

CITY           SKY/WX    TMP DP  RH WIND       PRES   REMARKS
BEMIDJI        MOSUNNY   74  63  68 E10       29.86S
HALLOCK        MOSUNNY   79  66  65 SE6       29.78F
ROSEAU         SUNNY     79  64  61 S10       29.83F
WARROAD        MOSUNNY   75  66  73 E7        29.84F
THIEF RVR FALL SUNNY     79  64  61 SE5       29.81F
CROOKSTON      MOSUNNY   81  66  61 S7        29.80S
FOSSTON        MOSUNNY   79  64  61 SE5       29.83S
DETROIT LAKES  PTSUNNY   77  64  65 SE8       29.84S
MOORHEAD       PTSUNNY   81  72  74 SE8       29.78F
PARK RAPIDS    PTSUNNY   77  63  61 SE9       29.85R
MAHNOMEN       FAIR      76  67  72 SE6       29.82S
$$
MNZ006-009>011-018-025>026-210100-
   North Central Minnesota

CITY           SKY/WX    TMP DP  RH WIND       PRES   REMARKS
BAUDETTE       PTSUNNY   75  62  64 SE3       29.86S
FLAG ISLAND    PTSUNNY   75  63  64 SE7       29.84F
INTL FALLS     MOSUNNY   73  59  61 SE6       29.88S
6HR MIN TEMP:  72; 6HR MAX TEMP:  76;

WASKISH        MOSUNNY   73  63  68 CALM      29.87S
BIG FORK       MOSUNNY   73  61  64 CALM      29.90S
LONGVILLE      MOSUNNY   73  64  73 E3        29.87R
GRAND RAPIDS   MOSUNNY   72  61  68 SE5       29.89S
CRANE LAKE     MOSUNNY   72  61  68 CALM      29.91R
ORR            CLOUDY    70  59  68 CALM      29.88S
COOK           CLOUDY    72  61  68 CALM      29.90S
WALKER         FAIR      73  64  73 E3        29.86S
$$
MNZ012-019>021-037-210100-
   Northeast Minnesota

CITY           SKY/WX    TMP DP  RH WIND       PRES   REMARKS
DULUTH         PTSUNNY   67  58  72 E8        29.92F
6HR MIN TEMP:  67; 6HR MAX TEMP:  72;

ELY            CLOUDY    70  63  78 CALM      29.92S
HIBBING        CLOUDY    71  61  70 S5        29.91S
EVELETH        CLOUDY    70  61  73 S6        29.92S
DULUTH HARBOR  CLOUDY    66  63  88 NE9       29.91F
TWO HARBORS    MOSUNNY   66  57  72 E3        29.91S
SILVER BAY     SUNNY     64  61  88 E3        29.92S
GRAND MARAIS     N/A     63  60  90 CALM      29.93S
G MARAIS ARPRT CLOUDY    61  55  82 CALM      29.96F
$$
MNZ029>031-032-039>041-046>048-054>057-064-210100-
   West Central Minnesota

CITY           SKY/WX    TMP DP  RH WIND       PRES   REMARKS
FERGUS FALLS   CLOUDY    79  63  57 SE7       29.78F
WHEATON        PTSUNNY   75  66  73 SE12      29.78S
MORRIS         PTSUNNY   81  66  61 SE12      29.78F
ALEXANDRIA     PTSUNNY   78  66  66 SE9       29.83F
ELBOW LAKE     FAIR      79  67  67 SE7       29.79F
WADENA         PTSUNNY   75  66  73 E6        29.84S
GLENWOOD       PTSUNNY   79  68  69 E6        29.83S
APPLETON       CLOUDY    81  68  65 E9        29.77F
BENSON         CLOUDY    79  68  69 SE10      29.78F
ORTONVILLE     PTSUNNY   79  66  65 SE13      29.76F
MADISON        CLOUDY    79  70  73 SE7       29.77S
WILLMAR        FAIR      79  66  65 E8        29.82F
$$
MNZ033>034-036-042>043-049>051-058-059-210100-
   Central Minnesota

CITY           SKY/WX    TMP DP  RH WIND       PRES   REMARKS
ST CLOUD       MOSUNNY   78  66  66 E6        29.84S
6HR MIN TEMP:  78; 6HR MAX TEMP:  82;

SAUK CENTRE    FAIR      77  65  67 E9        29.83S
PAYNESVILLE    PTSUNNY   76  65  70 E8        29.83F HAZE
AITKIN         MOSUNNY   75  66  73 SE3       29.86S
PINE RIVER     PTSUNNY   73  64  73 SE7       29.90R
BRAINERD       PTSUNNY   72  63  73 CALM      29.86F
STAPLES        MOSUNNY   75  64  69 E3        29.85S
LONG PRAIRIE   FAIR      75  64  69 E5        29.84S
LITTLE FALLS   MOSUNNY   75  63  64 E5        29.84F
LITCHFIELD     PTSUNNY   79  72  78 E6        29.83F
BUFFALO        PTSUNNY   79  64  58 E5        29.85R
MAPLE LAKE     PTSUNNY   78  67  67 CALM      29.85S
$$
MNZ037-044-045-052-053-210100-
   East Central Minnesota

CITY           SKY/WX    TMP DP  RH WIND       PRES   REMARKS
PRINCETON      PTSUNNY   77  66  69 E7        29.85S
MORA           PTSUNNY   72  61  68 CALM      29.88F
CAMBRIDGE      PTSUNNY   79  64  61 E3        29.84S
RUSH CITY      PTSUNNY   74  64  72 NE3       29.87S
MOOSE LAKE     MOSUNNY   70  61  73 NE3       29.87S
HINCKLEY       CLOUDY    73  64  73 E3        29.88S
CLOQUET        MOSUNNY   68  59  73 E6        29.91F
MCGREGOR       MOSUNNY   72  63  73 E6        29.89S
$$
MNZ071>073-080-081-089-090-097-098-210100-
   Southwest Minnesota

CITY           SKY/WX    TMP DP  RH WIND       PRES   REMARKS
MONTEVIDEO     CLOUDY    79  70  73 S6        29.79S
GRANITE FALLS  CLOUDY    78  69  73 E7        29.79F
CANBY          CLOUDY    75  70  85 CALM      29.78S
MARSHALL       CLOUDY    81  66  61 S12       29.78F
REDWOOD FALLS  PTSUNNY   80  68  66 SE10      29.79F
OLIVIA         PTSUNNY   79  66  65 SE8       29.80F
PIPESTONE      LGT RAIN  75  70  83 SE8       29.80F
WINDOM         LGT RAIN  77  70  78 S8        29.83S
WORTHINGTON    CLOUDY    72  14  11 SE7       29.83S
JACKSON        CLOUDY    75  68  78 SE9       29.84S
TRACY          LGT RAIN  77  70  80 SE6       29.81S
SLAYTON        CLOUDY    76  70  82 CALM      29.82F
$$
MNZ065>067-074>077-082>085-091>093-210100-
   South Central Minnesota

CITY           SKY/WX    TMP DP  RH WIND       PRES   REMARKS
MANKATO        MOSUNNY   79  64  61 S9        29.83S
NEW ULM        MOSUNNY   79  70  73 SE7       29.81F
ST JAMES       MOSUNNY   79  66  65 SE6       29.83S
FAIRMONT       PTSUNNY   75  66  73 SE8       29.84S
GLENCOE        PTSUNNY   81  66  59 E7        29.83S
FARIBAULT      PTSUNNY   84  64  51 SE7       29.85S
OWATONNA       MOSUNNY   81  66  61 S6        29.86S
WASECA         MOSUNNY   79  63  57 SE6       29.86F
ALBERT LEA     PTSUNNY   77  66  69 S6        29.86F
$$
MNZ078>079-086>088-094>096-210100-
   Southeast Minnesota

CITY           SKY/WX    TMP DP  RH WIND       PRES   REMARKS
ROCHESTER      MOSUNNY   79  67  66 S8        29.89R
6HR MIN TEMP:  78; 6HR MAX TEMP:  83;

RED WING       MOSUNNY   79  66  65 E7        29.84F
STANTON        PTSUNNY   79  69  71 E7        29.84S
DODGE CENTER   MOSUNNY   79  70  73 S7        29.88S
WINONA         PTSUNNY   79  70  73 E3        29.86F
AUSTIN         MOSUNNY   77  70  78 S7        29.88S
PRESTON        PTSUNNY   78  71  78 S5        29.89S
$$
ABBREVIATIONS USED IN REMARKS
   TC - TEMPERATURES IN CELSIUS
  WCI - WIND CHILL INDEX
   HX - HEAT INDEX
  VSB - VISIBILITY
$$



USA.gov is the U.S. government's official web portal to all federal, state and local government web resources and services.